Time,TemperatureF,DewpointF,PressureIn,WindDirection,WindDirectionDegrees,WindSpeedMPH,WindSpeedGustMPH,Humidity,HourlyPrecipIn,Conditions,Clouds,dailyrainin,SoftwareType,DateUTC
2013-06-11 00:00:00,35.0,32.0,-100.00,NW,308,12.0,15.0,89,-99.99,,,-99.99,,2013-06-11 07:00:00,
2013-06-11 00:52:00,35.0,32.0,-100.00,NW,308,12.0,15.0,89,-99.99,,,-99.99,,2013-06-11 07:52:00,
2013-06-11 01:00:00,35.0,29.0,-100.00,NW,308,12.0,20.0,80,-99.99,,,-99.99,,2013-06-11 08:00:00,
2013-06-11 01:52:00,35.0,29.0,-100.00,NW,308,12.0,20.0,80,-99.99,,,-99.99,,2013-06-11 08:52:00,
2013-06-11 02:00:00,33.0,32.0,-100.00,NW,304,14.0,24.0,95,-99.99,,,-99.99,,2013-06-11 09:00:00,
2013-06-11 02:53:00,33.0,32.0,-100.00,NW,304,14.0,24.0,95,-99.99,,,-99.99,,2013-06-11 09:53:00,
2013-06-11 03:00:00,33.0,32.0,-100.00,NW,310,16.0,27.0,95,-99.99,,,-99.99,,2013-06-11 10:00:00,
2013-06-11 03:52:00,33.0,32.0,-100.00,NW,310,16.0,27.0,95,-99.99,,,-99.99,,2013-06-11 10:52:00,
2013-06-11 04:00:00,32.0,31.0,-100.00,NW,313,18.0,28.0,97,-99.99,,,-99.99,,2013-06-11 11:00:00,
2013-06-11 04:52:00,32.0,31.0,-100.00,NW,313,18.0,28.0,97,-99.99,,,-99.99,,2013-06-11 11:52:00,
2013-06-11 05:00:00,32.0,31.0,-100.00,NW,313,17.0,25.0,95,-99.99,,,-99.99,,2013-06-11 12:00:00,
2013-06-11 05:52:00,32.0,31.0,-100.00,NW,313,17.0,25.0,95,-99.99,,,-99.99,,2013-06-11 12:52:00,
2013-06-11 06:00:00,31.0,30.0,-100.00,NW,307,16.0,24.0,96,-99.99,,,-99.99,,2013-06-11 13:00:00,
2013-06-11 06:52:00,31.0,30.0,-100.00,NW,307,16.0,24.0,96,-99.99,,,-99.99,,2013-06-11 13:52:00,
2013-06-11 14:00:00,34.0,33.0,-100.00,NW,306,12.0,20.0,95,-99.99,,,-99.99,,2013-06-11 21:00:00,
2013-06-11 14:53:00,34.0,33.0,-100.00,NW,306,12.0,20.0,95,-99.99,,,-99.99,,2013-06-11 21:53:00,
2013-06-11 16:00:00,34.0,34.0,-100.00,WNW,300,10.0,17.0,98,-99.99,,,-99.99,,2013-06-11 23:00:00,
2013-06-11 16:52:00,34.0,34.0,-100.00,WNW,300,10.0,17.0,98,-99.99,,,-99.99,,2013-06-11 23:52:00,
2013-06-11 17:00:00,34.0,33.0,-100.00,WNW,301,12.0,21.0,97,-99.99,,,-99.99,,2013-06-12 00:00:00,
2013-06-11 17:52:00,34.0,33.0,-100.00,WNW,301,12.0,21.0,97,-99.99,,,-99.99,,2013-06-12 00:52:00,
2013-06-11 18:00:00,34.0,34.0,-100.00,WNW,298,10.0,20.0,100,-99.99,,,-99.99,,2013-06-12 01:00:00,
2013-06-11 18:52:00,34.0,34.0,-100.00,WNW,298,10.0,20.0,100,-99.99,,,-99.99,,2013-06-12 01:52:00,
2013-06-11 19:00:00,33.0,33.0,-100.00,WNW,299,10.0,20.0,100,-99.99,,,-99.99,,2013-06-12 02:00:00,
2013-06-11 19:52:00,33.0,33.0,-100.00,WNW,299,10.0,20.0,100,-99.99,,,-99.99,,2013-06-12 02:52:00,
2013-06-11 21:00:00,32.0,32.0,-100.00,NW,312,10.0,16.0,100,-99.99,,,-99.99,,2013-06-12 04:00:00,
2013-06-11 21:52:00,32.0,32.0,-100.00,NW,312,10.0,16.0,100,-99.99,,,-99.99,,2013-06-12 04:52:00,
2013-06-11 22:00:00,33.0,33.0,-100.00,NW,309,12.0,20.0,100,-99.99,,,-99.99,,2013-06-12 05:00:00,
2013-06-11 22:52:00,33.0,33.0,-100.00,NW,309,12.0,20.0,100,-99.99,,,-99.99,,2013-06-12 05:52:00,
2013-06-11 23:00:00,32.0,32.0,-100.00,NW,306,12.0,18.0,100,-99.99,,,-99.99,,2013-06-12 06:00:00,
2013-06-11 23:52:00,32.0,32.0,-100.00,NW,306,12.0,18.0,100,-99.99,,,-99.99,,2013-06-12 06:52:00,